sat.trackr.live / text

‹ back to catalog

BEIDOU-2 IGSO-4 (C09)

NORAD 37763 · 2011-038A

PAYLOAD ACTIVE UNKNOWN

§ Identity

Operator
Country
PRC
Launch date
2011-07-26
Launch site
XICLF
Launch vehicle
Mass (kg)
RCS (m²)
16.30

Purposes: comms, nav

External: N2YO · Heavens-Above · Gunter

§ Orbital elements

Epoch: 2026-09-10T19:39:11.817792Z

Period
1,436.15 min
Inclination
54.6025°
Eccentricity
0.0160321
Mean motion
1.00268280 rev/d
Perigee alt
35,111.6 km
Apogee alt
36,463.6 km
Semi-major
42,165.7 km
B*
0.0000e+0
RAAN
164.9115°
Arg perigee
231.0094°
Mean anomaly
343.0930°
Rev number
5,550

§ Raw data

BEIDOU-2 IGSO-4 (C09)1 37763U 11038A   26253.81888678 -.00000114  00000+0  00000+0 0  99962 37763  54.6025 164.9115 0160321 231.0094 343.0930  1.00268280 55503

JSON: /api/v1/satellites/37763 · /tle

For live sub-satellite position, see the globe view (requires WebGL).

§ Visibility from observer

Set your observer location to see the next 7 days of passes ≥ 10°. The values pass through the URL so the page stays shareable.

No JS? Fill the form by hand. The geolocation button needs JavaScript.